Torna al catalogo

COSMOS 2251 DEB

AttivoLEO
NORAD 38068·DEBRIS·🇷🇺 Russia

Lanciato Jun 16, 1993 da Plesetsk Cosmodrome

Loading…

Prossimi Passaggi (prossime 24 ore)

TLE

ObsoletoSource: Space-Track

Epoca: Sep 6, 2026, 05:00 UTC

1 38068U 93036BSA 26249.20854977  .00000282  00000-0  10508-3 0  9990
2 38068  74.0221 176.6250 0026751 205.8243 154.1576 14.36336959704868

Traccia COSMOS 2251 DEB in tempo reale con AllMySat

Download on the App Store